This is the latest recevied weather packets stored in our database for station/object NA9VY-8. If no packets are shown the sender has not sent any weather packets the latest 10 day(s).
| Time | Temp. | Humidity | Pressure | Rain* | Wind** | Luminosity | Snow |
|---|---|---|---|---|---|---|---|
| 1777661853 | 13.33° C | 62% | 1020.2 hPa | 0 mm | - | 729 W/m² | - |
| 1777661549 | 12.22° C | 59% | 1020.2 hPa | 0 mm | - | 194 W/m² | - |
| 1777661245 | 12.78° C | 58% | 1020.1 hPa | 0 mm | - | 172 W/m² | - |
| 1777660941 | 13.89° C | 59% | 1020.2 hPa | 0 mm | - | 259 W/m² | - |
| 1777660637 | 12.22° C | 59% | 1020.1 hPa | 0 mm | - | 773 W/m² | - |
| 1777660334 | 12.22° C | 61% | 1020.3 hPa | 0 mm | - | 121 W/m² | - |
| 1777660030 | 12.78° C | 57% | 1020.3 hPa | 0 mm | - | 527 W/m² | - |
| 1777659727 | 12.22° C | 59% | 1020.3 hPa | 0 mm | - | 681 W/m² | - |
| 1777659424 | 12.22° C | 60% | 1020.3 hPa | 0 mm | - | 160 W/m² | - |
| 1777659121 | 12.22° C | 62% | 1020.2 hPa | 0 mm | - | 175 W/m² | - |
| 1777658819 | 12.22° C | 59% | 1020.3 hPa | 0 mm | - | 197 W/m² | - |
| 1777658515 | 12.78° C | 60% | 1020.1 hPa | 0 mm | - | 202 W/m² | - |
| 1777658211 | 12.78° C | 60% | 1020.1 hPa | 0 mm | - | 152 W/m² | - |
| 1777657909 | 12.78° C | 57% | 1020 hPa | 0 mm | - | 148 W/m² | - |
| 1777657605 | 13.33° C | 61% | 1019.8 hPa | 0 mm | - | 153 W/m² | - |
| 1777657303 | 12.78° C | 58% | 1020.2 hPa | 0 mm | - | 133 W/m² | - |
| 1777657000 | 12.78° C | 61% | 1020.3 hPa | 0 mm | - | 541 W/m² | - |
| 1777656697 | 12.78° C | 64% | 1020.1 hPa | 0 mm | - | 208 W/m² | - |
| 1777656393 | 13.33° C | 61% | 1020.1 hPa | 0 mm | - | 318 W/m² | - |
| 1777656088 | 12.78° C | 64% | 1020.1 hPa | 0 mm | - | 213 W/m² | - |
| 1777655784 | 13.33° C | 60% | 1020.4 hPa | 0 mm | - | 497 W/m² | - |
| 1777655481 | 11.67° C | 66% | 1020.6 hPa | 0 mm | - | 484 W/m² | - |
| 1777655178 | 11.11° C | 66% | 1020.6 hPa | 0 mm | - | 164 W/m² | - |
| 1777654875 | 11.11° C | 67% | 1020.4 hPa | 0 mm | - | 188 W/m² | - |
| 1777654572 | 11.67° C | 68% | 1020.5 hPa | 0 mm | - | 130 W/m² | - |
* Rain latest hour (hover to see other rain measurements)
** Current wind speed in m/s (hover to see current wind gust speed)